GORIZONT 19 [-]

Last updated on Nov. 15, 2019, 4:20 a.m. UTC

1 20263U 89081A   19318.23799227  .00000135  00000-0  00000+0 0  9990
2 20263  14.5080 352.6349 0005518 285.5848 255.2704  1.00274289110352
UTC
Height (km)
Latitude
Longitude
Inclination
Orbital Period
UTC large
Height (km)
Speed (km/s)
/
Latitude / Longitude
Inclination (degrees)
Orbital Period (minutes)
Azimuth
Elevation
Range (km)
Doppler Factor
iOS Compass Heading
iOS Angle

Next 30 passes for location: Hong Kong

Rise time Rise Azimuth (degrees) Set time Set Azimuth (degrees) Duration Max altitude (degrees)

No matching passes for this satellites